Weather in Shpikulovo

Russia / Tambov Oblast     51°44′51″N   41°52′21″E
temp.,
°C
wind,
m/s
gust,
m/s
humid.,
%
clouds,
%
prec.,
mm/h
press.,
hPa
HPBL,
m
3 march, wed
wed300:000nw5109896 0.5 1008454
03:00−1nw5109494 0.6 1009361
06:00−3nnw6109685 0.1 1010472
09:00−1nw6109492 0.3 1013849
12:00−2nnw6108492 0.2 1014843
15:00−3nw6108670 0.2 1016658
18:00−5wnw5118827 0.0 1017287
21:00−6w4119216 0.0 1018224
4 march, thu
thu400:00−5wsw499436 0.0 1016217
03:00−2w6129367 0.1 1015618
06:00−1wsw71388100 0.1 1012678
09:00−1wsw81592100 0.1 1011580
12:00+1wsw8159172 0.0 1010609
15:00+1wsw8168557 0.0 1008748
18:000sw7177713 0.0 1006564
21:00+1sw7188319 0.0 1005599
5 march, fri
fri500:00+2sw7168999 0.0 1003609
03:00+2wsw7159899 0.1 1002530
06:00+1wsw71497100 0.2 1002542
09:00+1w71299100 0.6 1004573
12:000nw579499 0.3 1007597
15:00−1nnw348799 0.4 1009532
18:00−3n2292100 0.0 101132
21:00−3nne2294100 0.1 101272
6 march, sat
sat600:00−4nne2497100 0.4 1011172
03:00−4nne3596100 1.2 1011256
06:00−7n369582 0.0 1013155
09:00−7nnw359284 0.0 1014229
12:00−5nw468558 0.0 1015511
15:00−4nw468029 0.0 1015590
18:00−7nw23890 0.0 101641
21:00−8n11890 0.0 101721
7 march, sun
sun700:00−8w119046 0.0 101721
03:00−8w119472 0.0 101721
06:00−8sw349682 0.1 101763
09:00−6sw5109173 0.1 1016625
12:00−4sw8137297 0.0 10131093
15:00−3sw9166898 0.0 10101197
18:00−3sw81670100 0.0 10081028
21:00−3sw9177296 0.0 1006918